Tracking 19149 objects as of 22-Apr-2018
HD Live streaming from Space Station
objects crossing your sky now

CZ-4B DEB

Track CZ-4B DEB now!
10-day predictions


NORAD ID: 29215
Int'l Code: 2002-024F
Perigee: 851.1 km
Apogee: 1,218.9 km
Inclination: 98.8 °
Period: 105.7 minutes
Semi major axis: 7406 km
RCS: 0.0014 m2 (small)
Launch date: May 15, 2002
Source: People's Republic of China (PRC)
Launch site: Taiyaun Space Center, China (TSC)

Note: This is SATELLITE DEBRIS
aabbcc
Your satellite tracking list
Your tracking list is empty




NASA's NSSDC Master Catalog

Two Line Element Set (TLE):
1 29215U 02024F   18111.56041758  .00000178  00000-0  22521-3 0  9996
2 29215  98.8243  22.5961 0248316 121.2657   2.7278 13.62153952782121
Source of the keplerian elements: AFSPC